Location: Holyhead Bay
(53.3667°N, 4.6667°W)
Time: 06:07:58
(UTC+00:00)

NOSS 3-3 (A) - Pass Details

Date: 24 November 2020
Orbit: 818 x 1394 km, 63.4° (Epoch: 22 January)

Event Time Altitude Azimuth Distance (km) Brightness Sun altitude
Rises 19:00:30 0° 308° (NW) 3,814 7.8 -24.6°
Reaches altitude 10° 19:03:03 10° 312° (NW) 2,938 7.1 -25.0°
Maximum altitude 19:10:04 62° 33° (NNE) 1,340 4.5 -26.1°
Enters shadow 19:11:35 53° 78° (ENE) 1,481 4.5 -26.3°
